Terminal Aerodrome Forecast
Issued by NWS

Home | Current Version | Previous Version | Text Only | Print | Product List | Glossary On
Versions: 1 2 3 4 5 6 7 8 9 10 11 12 13 14 15 16 17 18 19 20 21 22 23 24 25 26
000
FTAK31 PANC 162338
TAFAHO
TAF
PAHO 162338Z 1700/1724 09004KT P6SM -RA VCSH SCT050 OVC060
     FM170300 09010KT P6SM -SHRA OVC050
     FM170900 10015KT P6SM -RA BKN035=

USA.gov is the U.S. government's official web portal to all federal, state and local government web resources and services.